Howell, MI

5:32 PM EST on January 18, 2018 (GMT -0500)
Livingston County

Weather History for KOZW - October, 2011

Change the Weather History Date:

Saturday, October 15, 2011

  Actual Average Record
Temperature  
Mean Temperature 50 °F -  
Max Temperature 55 °F 59 °F 71 °F (2007)
Min Temperature 44 °F 40 °F 30 °F (2006)
Degree Days  
Heating Degree Days 16    
Moisture  
Dew Point 37 °F    
Average Humidity 65    
Maximum Humidity 93    
Minimum Humidity 44    
Precipitation  
Precipitation 0.00 in - - ()
Sea Level Pressure  
Sea Level Pressure 29.58 in    
Wind  
Wind Speed 17 mph (West)    
Max Wind Speed 33 mph    
Max Gust Speed 44 mph    
Visibility 10 miles    
Events Rain    
Averages and records for this station are not official NWS values.
T = Trace of Precipitation, MM = Missing Value Source: NWS Daily Summary

Daily Weather History Graph

Daily Weather History Graph

Search for Another Location

Airport or City:

Trip Planner

Search our weather history database for the weather conditions in past years. The results will help you decide how hot, cold, wet, or windy it might be!

Date:

Astronomy

Oct. 15, 2011 Rise Set
Actual Time 7:48 AM EDT 6:54 PM EDT
Civil Twilight 7:20 AM EDT 7:22 PM EDT
Nautical Twilight 6:47 AM EDT 7:55 PM EDT
Astronomical Twilight 6:14 AM EDT 8:27 PM EDT
Moon 8:44 PM EDT (10/15) 11:17 AM EDT (10/15)
Length of Visible Light 12h 02m
Length of Day
11h 05m
Waning Gibbous, 89% of the Moon is Illuminated
Oct 15
Waning Gibbous
Oct 19
Last Quarter
Oct 26
New
Nov 2
First Quarter
Nov 10
Full

Hourly Weather History & Observations

Time (EDT) Temp. Windchill Dew Point Humidity Pressure Visibility Wind Dir Wind Speed Gust Speed Precip Events Conditions
12:15 AM 48.2 °F - 37.4 °F 66% 29.51 in 10.0 mi West 10.4 mph 17.3 mph N/A   Overcast
12:34 AM 48.2 °F - 37.4 °F 66% 29.51 in 10.0 mi West 10.4 mph 20.7 mph N/A   Overcast
12:55 AM 48.2 °F - 37.4 °F 66% 29.51 in 10.0 mi West 15.0 mph 23.0 mph N/A   Overcast
1:15 AM 48.2 °F - 37.4 °F 66% 29.51 in 10.0 mi West 15.0 mph 23.0 mph N/A   Overcast
1:34 AM 48.2 °F - 37.4 °F 66% 29.51 in 10.0 mi West 18.4 mph 26.5 mph N/A   Overcast
1:55 AM 48.2 °F - 37.4 °F 66% 29.51 in 10.0 mi West 19.6 mph 26.5 mph N/A   Overcast
2:15 AM 46.4 °F 39.5 °F 39.2 °F 76% 29.51 in 10.0 mi West 17.3 mph 26.5 mph N/A   Light Drizzle
2:34 AM 46.4 °F 40.4 °F 41.0 °F 81% 29.51 in 10.0 mi West 13.8 mph 20.7 mph N/A   Light Drizzle
2:55 AM 46.4 °F 39.8 °F 41.0 °F 81% 29.51 in 10.0 mi West 16.1 mph 19.6 mph N/A   Drizzle
3:15 AM 46.4 °F 41.1 °F 41.0 °F 81% 29.51 in 10.0 mi West 11.5 mph 19.6 mph N/A   Light Drizzle
3:35 AM 44.6 °F 38.1 °F 41.0 °F 87% 29.51 in 10.0 mi West 13.8 mph 19.6 mph N/A Rain Light Rain
3:55 AM 44.6 °F 38.8 °F 41.0 °F 87% 29.51 in 10.0 mi West 11.5 mph 18.4 mph N/A   Drizzle
4:14 AM 44.6 °F 39.2 °F 42.8 °F 93% 29.51 in 10.0 mi WSW 10.4 mph 20.7 mph N/A   Drizzle
4:35 AM 44.6 °F 37.8 °F 42.8 °F 93% 29.51 in 10.0 mi WSW 15.0 mph 21.9 mph N/A Rain Light Rain
4:55 AM 44.6 °F 38.1 °F 42.8 °F 93% 29.51 in 10.0 mi WSW 13.8 mph - N/A Rain Light Rain
5:14 AM 44.6 °F 37.8 °F 42.8 °F 93% 29.51 in 10.0 mi WSW 15.0 mph 20.7 mph N/A Rain Light Rain
5:35 AM 44.6 °F 38.1 °F 42.8 °F 93% 29.51 in 7.0 mi West 13.8 mph 23.0 mph N/A Rain Rain
5:55 AM 44.6 °F 37.8 °F 42.8 °F 93% 29.51 in 7.0 mi West 15.0 mph 19.6 mph N/A Rain Light Rain
6:14 AM 44.6 °F 38.4 °F 42.8 °F 93% 29.51 in 7.0 mi West 12.7 mph 21.9 mph N/A Rain Rain
6:35 AM 44.6 °F 36.9 °F 42.8 °F 93% 29.51 in 7.0 mi West 18.4 mph 29.9 mph N/A Rain Rain
6:55 AM 44.6 °F 36.9 °F 42.8 °F 93% 29.52 in 7.0 mi West 18.4 mph 29.9 mph N/A Rain Rain
7:14 AM 44.6 °F 37.8 °F 41.0 °F 87% 29.53 in 10.0 mi West 15.0 mph 25.3 mph N/A Rain Rain
7:35 AM 44.6 °F 37.8 °F 41.0 °F 87% 29.52 in 10.0 mi West 15.0 mph 21.9 mph N/A   Light Drizzle
8:15 AM 44.6 °F 39.2 °F 42.8 °F 93% 29.53 in 10.0 mi West 10.4 mph - N/A   Overcast
9:15 AM 46.4 °F 39.5 °F 39.2 °F 76% 29.54 in 10.0 mi West 17.3 mph 26.5 mph N/A   Overcast
9:35 AM 46.4 °F 39.2 °F 39.2 °F 76% 29.54 in 10.0 mi West 18.4 mph 26.5 mph N/A   Overcast
9:54 AM 48.2 °F - 37.4 °F 66% 29.55 in 10.0 mi West 19.6 mph 25.3 mph N/A   Overcast
10:15 AM 48.2 °F - 37.4 °F 66% 29.55 in 10.0 mi West 17.3 mph 32.2 mph N/A   Overcast
10:35 AM 50.0 °F - 37.4 °F 62% 29.55 in 10.0 mi West 19.6 mph 34.5 mph N/A   Overcast
10:54 AM 50.0 °F - 35.6 °F 58% 29.56 in 10.0 mi West 26.5 mph 34.5 mph N/A   Overcast
11:35 AM 51.8 °F - 35.6 °F 54% 29.57 in 10.0 mi West 32.2 mph 43.7 mph N/A   Overcast
11:54 AM 51.8 °F - 35.6 °F 54% 29.58 in 10.0 mi West 28.8 mph 36.8 mph N/A   Overcast
12:15 PM 51.8 °F - 35.6 °F 54% 29.59 in 10.0 mi West 27.6 mph 36.8 mph N/A   Mostly Cloudy
12:35 PM 51.8 °F - 33.8 °F 50% 29.60 in 10.0 mi West 25.3 mph 39.1 mph N/A   Overcast
12:55 PM 51.8 °F - 33.8 °F 50% 29.60 in 10.0 mi West 27.6 mph 43.7 mph N/A   Overcast
1:15 PM 51.8 °F - 33.8 °F 50% 29.61 in 10.0 mi West 26.5 mph 40.3 mph N/A   Overcast
1:35 PM 51.8 °F - 33.8 °F 50% 29.61 in 10.0 mi West 27.6 mph 38.0 mph N/A   Mostly Cloudy
1:55 PM 51.8 °F - 33.8 °F 50% 29.62 in 10.0 mi West 28.8 mph 35.7 mph N/A   Mostly Cloudy
2:14 PM 53.6 °F - 33.8 °F 47% 29.62 in 10.0 mi West 23.0 mph 41.4 mph N/A   Mostly Cloudy
2:35 PM 53.6 °F - 33.8 °F 47% 29.63 in 10.0 mi West 23.0 mph 29.9 mph N/A   Mostly Cloudy
2:55 PM 53.6 °F - 33.8 °F 47% 29.63 in 10.0 mi West 28.8 mph 35.7 mph N/A   Mostly Cloudy
3:14 PM 53.6 °F - 33.8 °F 47% 29.64 in 10.0 mi West 26.5 mph 40.3 mph N/A   Overcast
3:35 PM 53.6 °F - 33.8 °F 47% 29.65 in 10.0 mi West 29.9 mph 39.1 mph N/A   Overcast
3:55 PM 53.6 °F - 33.8 °F 47% 29.65 in 10.0 mi West 21.9 mph 36.8 mph N/A   Overcast
4:14 PM 53.6 °F - 33.8 °F 47% 29.66 in 10.0 mi West 25.3 mph 35.7 mph N/A   Overcast
4:35 PM 53.6 °F - 33.8 °F 47% 29.67 in 10.0 mi West 28.8 mph 39.1 mph N/A   Mostly Cloudy
4:54 PM 55.4 °F - 33.8 °F 44% 29.67 in 10.0 mi West 28.8 mph 38.0 mph N/A   Overcast
5:15 PM 55.4 °F - 33.8 °F 44% 29.68 in 10.0 mi West 33.4 mph 43.7 mph N/A   Mostly Cloudy
5:34 PM 53.6 °F - 33.8 °F 47% 29.68 in 10.0 mi West 23.0 mph 31.1 mph N/A   Scattered Clouds
5:54 PM 53.6 °F - 33.8 °F 47% 29.69 in 10.0 mi West 26.5 mph 34.5 mph N/A   Scattered Clouds
6:15 PM 53.6 °F - 33.8 °F 47% 29.71 in 10.0 mi West 23.0 mph 28.8 mph N/A   Mostly Cloudy
6:35 PM 53.6 °F - 33.8 °F 47% 29.71 in 10.0 mi West 24.2 mph 34.5 mph N/A   Mostly Cloudy
6:55 PM 53.6 °F - 33.8 °F 47% 29.72 in 10.0 mi West 17.3 mph 31.1 mph N/A   Mostly Cloudy
7:15 PM 53.6 °F - 33.8 °F 47% 29.73 in 10.0 mi West 16.1 mph 24.2 mph N/A   Mostly Cloudy
7:35 PM 53.6 °F - 33.8 °F 47% 29.74 in 10.0 mi West 16.1 mph 29.9 mph N/A   Mostly Cloudy
8:15 PM 51.8 °F - 33.8 °F 50% 29.75 in 10.0 mi West 15.0 mph 20.7 mph N/A   Mostly Cloudy
8:34 PM 51.8 °F - 33.8 °F 50% 29.75 in 10.0 mi West 11.5 mph 20.7 mph N/A   Mostly Cloudy
8:55 PM 51.8 °F - 35.6 °F 54% 29.76 in 10.0 mi WSW 10.4 mph 16.1 mph N/A   Mostly Cloudy
9:15 PM 50.0 °F - 35.6 °F 58% 29.76 in 10.0 mi WSW 9.2 mph - N/A   Scattered Clouds
9:34 PM 50.0 °F - 35.6 °F 58% 29.77 in 10.0 mi WSW 9.2 mph - N/A   Scattered Clouds
9:55 PM 48.2 °F - 35.6 °F 62% 29.77 in 10.0 mi WSW 8.1 mph - N/A   Clear
10:15 PM 46.4 °F 43.5 °F 35.6 °F 66% 29.77 in 10.0 mi WSW 5.8 mph - N/A   Clear
10:55 PM 46.4 °F 44.3 °F 35.6 °F 66% 29.78 in 10.0 mi WSW 4.6 mph - N/A   Clear
11:14 PM 46.4 °F 43.5 °F 35.6 °F 66% 29.78 in 10.0 mi WSW 5.8 mph - N/A   Clear
11:35 PM 46.4 °F 43.5 °F 37.4 °F 71% 29.79 in 10.0 mi WSW 5.8 mph - N/A   Clear